Regional Weather Roundup
Issued by NWS Lake Charles, LA

Home | Current Version | Previous Version | Text Only | Print | Product List | Glossary On
Versions: 1 2 3 4 5 6 7 8 9 10 11 12 13 14 15 16 17 18 19 20 21 22 23 24 25 26 27 28 29 30 31 32 33 34 35 36 37 38 39 40 41 42 43 44 45 46 47 48 49 50
000
ASUS44 KLCH 041110
RWRLCH
RWRLCH
REGIONAL WEATHER ROUNDUP
NATIONAL WEATHER SERVICE LAKE CHARLES LA
600 AM CDT FRI SEP 04 2015

Note: "fair" indicates few or no clouds below 12,000 feet with no
significant weather and/or obstructions to visibility.


ACROSS SOUTHEAST TEXAS

CITY           SKY/WX    TMP DP  RH WIND       PRES   REMARKS
BEAUMONT       CLEAR     76  75  97 CALM      29.92R
BEAUMONT CITY  PTSUNNY   73  73  98 CALM      29.94R
ORANGE         PTSUNNY  N/A N/A N/A CALM      29.95R FOG
JASPER         CLEAR     74  73  96 CALM      29.97S
$$

ACROSS CENTRAL LOUISIANA

CITY           SKY/WX    TMP DP  RH WIND       PRES   REMARKS
LEESVILLE      CLEAR     72  71  96 SE3       29.95R
FULLERTON        N/A     71  69  93 CALM      29.94R
ALEXANDRIA INT CLEAR     74  73  97 S3        29.94R
ESLER FIELD    CLOUDY    73  69  87 CALM      29.97R
DERIDDER       CLOUDY    73  71  95 CALM      29.98R
OAKDALE          N/A     69  68  96 CALM      29.95S FOG
OPELOUSAS        N/A     73  73  99 CALM      29.95F
$$

ACROSS SOUTHWEST AND SOUTH CENTRAL LOUISIANA

CITY           SKY/WX    TMP DP  RH WIND       PRES   REMARKS
SULPHUR        SUNNY     77  77  99 CALM      29.94R
LAKE CHARLES   CLOUDY    75  74  96 CALM      29.94R FOG
CHENNAULT INT  CLEAR     73  73 100 CALM      29.95R
CAMERON PHI    MOSUNNY   82  77  83 S7        29.96R
DEQUINCY         N/A     73  73 100 CALM      29.95R
JENNINGS         N/A     74  74  98 E3        29.95R
LAFAYETTE      PTCLDY    76  74  93 CALM      29.95S
NEW IBERIA     CLEAR     76  74  93 CALM      29.96R
ABBEVILLE        N/A     73  73 100 CALM      29.96R FOG
PATTERSON      CLEAR     73  72  94 CALM      29.97S
SALT POINT       N/A     77  76  96 CALM      29.94S
$$

SELECTED SITES ACROSS THE REGION

CITY           SKY/WX    TMP DP  RH WIND       PRES   REMARKS
HOUSTON BUSH   PTCLDY    75  74  96 CALM      29.92S
HOUSTON HOBBY  PTCLDY    77  74  90 CALM      29.91S
GALVESTON      PTCLDY    83  76  79 S5        29.92R
COLLEGE STAT   PTCLDY    75  73  93 E3        29.93S
CONROE         PTCLDY    73  70  90 CALM      29.94R
HUNTSVILLE     CLEAR     75  73  93 CALM      29.94R
LUFKIN         CLEAR     71  70  96 E3        29.95R
SHREVEPORT     MOCLDY    74  70  87 S3        29.95R
MONROE         CLEAR     72  70  93 CALM      29.97R
NATCHEZ MS     CLEAR     73  70  88 CALM      29.99R
BATON ROUGE    CLEAR     75  72  90 CALM      29.96S
N.O. INTL ARPT MOCLDY    78  73  84 CALM      29.96S
SLIDELL        MOCLDY    72  72 100 N3        29.97R
$$

MARINE REPORTS

STATION/POSITION TIME  TEMP    WIND        PRES    VSBY  WAVE
                       AIR SEA DIR/SP/G                  HT/PER
                 (UTC) (F)     (DEG/KT/KT) (MB)    (MI)  (FT/S)
BUOY 30 S HIGH I 1050   84 85  190/  8/ 12 1013.0R         3/ 6
SEA RIM ST PARK  1100   82     200/  7/  9 1014.0R
PORT ARTHUR      1000      85  150/  3/  4 1013.1R
SABINE PASS N    1000   81 84  190/  3/  3 1013.3R
TEXAS POINT      NOT AVBL
CALCASIEU PASS   1000   83 83  200/  7/  9 1012.5R
LK CHARLES BEACH 1000   76 86                N/A
MARSH ISLAND     1000   84     190/  4/  8   N/A           0
FRESH WATER LOCK 1000   81 84  140/  4/  5 1013.7R
AMERADA PASS     1000   78 83   CALM  /  1 1014.2R
$$



USA.gov is the U.S. government's official web portal to all federal, state and local government web resources and services.